[[{"header":{"parameterUnit":"m.s-1","parameterCategory":1,"la1":30.2991,"la2":30.254,"lo1":-89.0895,"lo2":-89.0444,"dy":0.0017,"dx":0.0017,"nx":28,"ny":28,"refTime":"2024-09-02T03:00:00:Z","depth":0,"parameterNumber":2,"parameterNumberName":"U-component_of_WINDS"},"data":[0,0,0,0,0,0,0,0,0,0,0,0,0,0,0,0,0,0,0,0,0,0,0,0,0,0,0,0,0,0,0,0,0,0,0,0,0,0,0,0,0,0,0,0,0,0,0,0,0,0,0,0,0,0,0,0,0,0,-0.2603,-0.2602,0,-0.245,-0.2448,-0.2446,-0.2392,-0.2393,-0.2393,-0.2394,-0.2236,-0.2232,-0.2227,0,0,0,0,0,0,0,0,0,0,0,0,0,-0.2854,-0.285,-0.2603,-0.2601,-0.26,-0.245,-0.2448,-0.2446,-0.2392,-0.2393,-0.2393,-0.2394,-0.2238,-0.2232,-0.2226,0,0,0,0,0,0,0,0,0,0,0,0,0,-0.2727,-0.2848,-0.2604,-0.2555,-0.2549,-0.245,-0.2448,-0.2445,-0.2392,-0.2393,-0.2394,-0.2394,-0.224,-0.2233,-0.2226,-0.2164,0,0,-0.2204,-0.2201,0,0,0,0,0,0,0,0,-0.2735,-0.2718,-0.2564,-0.2558,-0.2551,-0.2441,-0.2478,-0.2351,-0.2392,-0.2451,-0.2394,-0.2395,-0.2304,-0.2291,-0.226,-0.2157,-0.215,-0.2203,-0.2199,-0.2196,-0.2194,0,0,0,0,0,0,0,-0.2743,-0.2724,-0.2542,-0.2562,-0.2554,-0.2542,-0.2525,-0.2454,-0.2375,-0.2446,-0.2442,-0.2425,-0.23,-0.2267,-0.2256,-0.2148,-0.2204,-0.2197,-0.2193,-0.219,-0.1992,-0.1991,0,0,0,0,0,0,-0.276,-0.2732,-0.2547,-0.2538,-0.2647,-0.2536,-0.2517,-0.2475,-0.2375,-0.2361,-0.2424,-0.2423,-0.2279,-0.2265,-0.2251,-0.2175,-0.2196,-0.2189,-0.2185,-0.1993,-0.1991,-0.199,0,0,0,0,0,0,-0.2766,-0.2744,-0.2554,-0.2634,-0.2609,-0.2531,-0.2485,-0.2472,-0.2439,-0.2358,-0.2344,-0.2405,-0.2279,-0.2261,-0.2187,-0.2169,-0.2186,-0.218,-0.1994,-0.1992,-0.1991,-0.2022,0,0,0,0,0,0,-0.2773,-0.2746,-0.2721,-0.2634,-0.2605,-0.2492,-0.2483,-0.2468,-0.2427,-0.2424,-0.2337,-0.2323,-0.2279,-0.2198,-0.218,-0.2159,-0.2174,-0.1995,-0.1993,-0.1991,-0.2022,-0.2021,-0.2021,0,0,0,0,0,-0.2782,-0.2735,-0.272,-0.2698,-0.2571,-0.2491,-0.2474,-0.2424,-0.2426,-0.24,-0.235,-0.2326,-0.2174,-0.2191,-0.217,-0.2147,-0.1996,-0.1994,-0.1991,-0.2022,-0.2021,-0.2021,0,0,0,0,0,0,-0.2821,-0.2722,-0.2705,-0.2627,-0.2568,-0.2482,-0.2448,-0.2424,-0.2363,-0.2362,-0.2303,-0.2284,-0.2216,-0.2174,-0.2195,-0.2085,-0.2084,-0.2077,-0.2114,-0.2113,-0.2113,-0.2124,-0.2168,0,0,0,0,0,-0.2821,-0.2763,-0.268,-0.262,-0.2591,-0.2526,-0.2488,-0.2456,-0.2391,-0.2366,-0.2309,-0.2248,-0.2187,-0.2148,-0.2087,-0.2017,-0.1998,-0.1991,-0.199,-0.199,-0.1985,-0.1948,-0.1945,-0.1983,-0.1983,-0.1983,0,0,-0.2819,-0.2758,-0.2725,-0.2627,-0.2576,-0.252,-0.2504,-0.2443,-0.2401,-0.2356,-0.2284,-0.2241,-0.217,-0.2099,-0.2064,-0.2062,-0.1971,-0.1987,-0.1988,-0.1982,-0.1946,-0.1942,-0.1939,-0.1981,-0.1982,-0.1982,0,0,-0.2787,-0.2734,-0.268,-0.2632,-0.2557,-0.2514,-0.2502,-0.242,-0.239,-0.2317,-0.2283,-0.2233,-0.2128,-0.2079,-0.2041,-0.1997,-0.1974,-0.1979,-0.1976,-0.1941,-0.1938,-0.1935,-0.1921,-0.1917,-0.1975,-0.1975,-0.1975,0,-0.2794,-0.2706,-0.2655,-0.2597,-0.2557,-0.2516,-0.2462,-0.2417,-0.2326,-0.23,-0.2298,-0.2169,-0.2118,-0.2036,-0.2027,-0.1996,-0.1982,-0.1988,-0.1943,-0.1939,-0.1936,-0.1922,-0.1917,-0.1976,-0.1976,-0.1976,-0.1975,0,-0.272,-0.266,-0.2626,-0.2541,-0.2496,-0.2441,-0.2383,-0.2344,-0.2317,-0.2275,-0.2204,-0.2142,-0.2069,-0.2048,-0.2019,-0.1964,-0.1965,-0.1954,-0.1951,-0.1934,-0.192,-0.1914,-0.1978,-0.1977,-0.1977,-0.1976,0,0,-0.2705,-0.2596,-0.2584,-0.2547,-0.2464,-0.2417,-0.2362,-0.2292,-0.2261,-0.2201,-0.2154,-0.2069,-0.206,-0.2017,-0.1983,-0.1953,-0.1925,-0.1946,-0.1943,-0.1945,-0.1863,-0.1872,-0.1867,-0.191,-0.1909,-0.1908,-0.187,0,-0.2663,-0.2561,-0.2516,-0.2435,-0.2381,-0.2344,-0.2296,-0.2241,-0.2202,-0.2151,-0.2108,-0.2049,-0.204,-0.2015,-0.1983,-0.1935,-0.1908,-0.1937,-0.1867,-0.1865,-0.1886,-0.1859,-0.1867,-0.1834,-0.1864,-0.1863,-0.1862,0,-0.26,-0.2542,-0.2456,-0.2383,-0.2359,-0.2316,-0.2251,-0.2202,-0.2141,-0.2115,-0.2069,-0.2038,-0.1981,-0.1984,-0.1906,-0.1927,-0.1896,-0.1869,-0.1867,-0.1858,-0.1862,-0.185,-0.1821,-0.1817,-0.1853,-0.1853,-0.1854,0,-0.26,-0.25,-0.2436,-0.2405,-0.2318,-0.229,-0.2253,-0.2192,-0.2154,-0.2098,-0.2073,-0.2011,-0.1977,-0.193,-0.1884,-0.189,-0.1811,-0.181,-0.1789,-0.1791,-0.1773,-0.1774,-0.174,-0.1753,-0.1753,-0.1754,-0.1754,0,-0.2558,-0.2507,-0.2436,-0.2396,-0.234,-0.229,-0.2236,-0.2196,-0.2144,-0.2098,-0.2062,-0.202,-0.1962,-0.1913,-0.1877,-0.1819,-0.1804,-0.1782,-0.1773,-0.1785,-0.1788,-0.1763,-0.1765,-0.1752,-0.1752,-0.1753,-0.1753,0,-0.2547,-0.2497,-0.2426,-0.2351,-0.2331,-0.2293,-0.2229,-0.2191,-0.2152,-0.2095,-0.2078,-0.2017,-0.1958,-0.1908,-0.183,-0.1806,-0.1747,-0.1736,-0.1768,-0.1763,-0.1746,-0.1748,-0.1693,-0.1685,-0.1705,-0.1705,-0.1704,0,-0.2523,-0.2484,-0.2406,-0.2373,-0.2336,-0.2283,-0.2245,-0.2196,-0.2159,-0.2088,-0.206,-0.1999,-0.1947,-0.1856,-0.1804,-0.1746,-0.1734,-0.1719,-0.1724,-0.1739,-0.1735,-0.1738,-0.1734,-0.1718,-0.1718,-0.1718,-0.1718,0,-0.2488,-0.2466,-0.2413,-0.2352,-0.2308,-0.2258,-0.2206,-0.2182,-0.2124,-0.2084,-0.2024,-0.1984,-0.1907,-0.1847,-0.1784,-0.1747,-0.1724,-0.1718,-0.171,-0.1721,-0.1742,-0.1732,-0.1768,-0.1718,-0.1718,-0.1718,-0.1718,-0.1718,-0.2471,-0.2435,-0.2375,-0.2318,-0.2275,-0.2229,-0.2191,-0.2148,-0.2097,-0.203,-0.2005,-0.1944,-0.1888,-0.1801,-0.1764,-0.1718,-0.1714,-0.1702,-0.1699,-0.1697,-0.17,-0.175,-0.1706,-0.1706,-0.1706,-0.1706,-0.1706,0,-0.2434,-0.2395,-0.2343,-0.2274,-0.223,-0.2213,-0.2156,-0.2121,-0.2068,-0.2017,-0.1968,-0.1901,-0.1845,-0.1791,-0.1732,-0.1705,-0.1694,-0.1692,-0.1693,-0.1685,-0.1706,-0.1719,-0.1703,-0.1703,-0.1703,-0.1703,-0.1703,-0.1703,-0.241,-0.235,-0.2322,-0.2242,-0.2203,-0.2143,-0.2113,-0.2071,-0.2031,-0.1958,-0.1911,-0.1877,-0.1826,-0.1764,-0.1712,-0.1698,-0.1678,-0.168,-0.1663,-0.1683,-0.1684,-0.1684,-0.1696,-0.1676,-0.1676,-0.1646,-0.1646,-0.1646]},{"header":{"parameterUnit":"m.s-1","parameterCategory":1,"la1":30.2991,"la2":30.254,"lo1":-89.0895,"lo2":-89.0444,"dy":0.0017,"dx":0.0017,"nx":28,"ny":28,"refTime":"2024-09-02T03:00:00:Z","depth":0,"parameterNumber":3,"parameterNumberName":"V-component_of_WINDS"},"data":[0,0,0,0,0,0,0,0,0,0,0,0,0,0,0,0,0,0,0,0,0,0,0,0,0,0,0,0,0,0,0,0,0,0,0,0,0,0,0,0,0,0,0,0,0,0,0,0,0,0,0,0,0,0,0,0,0,0,2.3319,2.332,0,2.3391,2.3392,2.3393,2.3399,2.3398,2.3397,2.3396,2.3468,2.347,2.3473,0,0,0,0,0,0,0,0,0,0,0,0,0,2.3181,2.3183,2.3319,2.332,2.3321,2.3391,2.3392,2.3393,2.3399,2.3398,2.3397,2.3396,2.3467,2.347,2.3473,0,0,0,0,0,0,0,0,0,0,0,0,0,2.3246,2.3184,2.3319,2.3332,2.3334,2.3391,2.3392,2.3393,2.3399,2.3398,2.3397,2.3396,2.3466,2.347,2.3473,2.3521,0,0,2.3486,2.3487,0,0,0,0,0,0,0,0,2.3242,2.3251,2.3329,2.3331,2.3334,2.3385,2.337,2.3436,2.3399,2.3374,2.3396,2.3395,2.3441,2.3447,2.3463,2.3525,2.3528,2.3486,2.3488,2.349,2.3491,0,0,0,0,0,0,0,2.3237,2.3247,2.3348,2.333,2.3333,2.3333,2.3341,2.3382,2.3413,2.3376,2.3377,2.3386,2.3442,2.3459,2.3465,2.3529,2.3486,2.3489,2.3492,2.3493,2.3628,2.3629,0,0,0,0,0,0,2.3231,2.3244,2.3345,2.335,2.3284,2.3336,2.3345,2.337,2.3413,2.3418,2.3386,2.3386,2.3453,2.346,2.3467,2.3522,2.349,2.3494,2.3496,2.3627,2.3628,2.363,0,0,0,0,0,0,2.3228,2.324,2.3342,2.3297,2.331,2.334,2.3367,2.3372,2.3389,2.342,2.3426,2.3399,2.3452,2.3462,2.3507,2.3525,2.3495,2.3499,2.3625,2.3627,2.3629,2.3636,0,0,0,0,0,0,2.3224,2.3239,2.3259,2.3297,2.3312,2.3383,2.3369,2.3374,2.3396,2.3395,2.3433,2.3438,2.3452,2.3501,2.3511,2.353,2.3502,2.3624,2.3626,2.3628,2.3634,2.3638,2.3641,0,0,0,0,0,2.3219,2.3258,2.326,2.3272,2.3338,2.3384,2.3392,2.3408,2.3398,2.3416,2.3436,2.3437,2.3522,2.3506,2.3517,2.3537,2.3623,2.3626,2.3628,2.3632,2.3637,2.364,0,0,0,0,0,0,2.3221,2.3264,2.3266,2.3319,2.3348,2.3385,2.3409,2.3413,2.3444,2.3442,2.3459,2.3468,2.3512,2.3529,2.351,2.3583,2.3571,2.3576,2.357,2.3575,2.3578,2.3572,2.3505,0,0,0,0,0,2.3228,2.3262,2.3297,2.3341,2.3355,2.338,2.34,2.3409,2.3439,2.3451,2.3475,2.3502,2.3535,2.3556,2.3588,2.3637,2.3643,2.3656,2.3659,2.3662,2.3666,2.3689,2.3694,2.3639,2.3639,2.3639,0,0,2.3242,2.3269,2.329,2.3342,2.3365,2.3398,2.339,2.3427,2.3451,2.3457,2.35,2.3518,2.355,2.3596,2.3617,2.3612,2.3682,2.3665,2.3667,2.367,2.3692,2.3697,2.3702,2.3641,2.364,2.364,0,0,2.3284,2.331,2.3347,2.337,2.3405,2.342,2.3429,2.3465,2.3477,2.3521,2.3525,2.3553,2.361,2.3631,2.365,2.3696,2.3697,2.3706,2.3722,2.3745,2.3749,2.3753,2.3766,2.3771,2.371,2.371,2.371,0,2.3296,2.3348,2.3365,2.3401,2.3421,2.3428,2.3464,2.3486,2.3529,2.3542,2.3536,2.3604,2.3627,2.3676,2.3687,2.3703,2.3711,2.3701,2.3747,2.3751,2.3755,2.3768,2.3773,2.371,2.371,2.371,2.371,0,2.336,2.3396,2.3421,2.3462,2.3486,2.3522,2.3542,2.3564,2.357,2.3585,2.3628,2.3655,2.369,2.3703,2.3711,2.3752,2.3747,2.3744,2.3731,2.3761,2.3773,2.3778,2.3711,2.3711,2.3711,2.3711,0,0,2.3406,2.3454,2.3463,2.348,2.3518,2.3544,2.3579,2.3614,2.3631,2.366,2.3687,2.3733,2.3729,2.375,2.3759,2.3779,2.381,2.3773,2.3774,2.3776,2.3853,2.3854,2.386,2.3811,2.3812,2.3813,2.385,0,2.3449,2.3512,2.3526,2.3579,2.361,2.3615,2.3645,2.367,2.3685,2.3711,2.3727,2.3759,2.3753,2.3765,2.3785,2.3802,2.3825,2.38,2.3834,2.3835,2.3824,2.3867,2.3868,2.3902,2.3855,2.3856,2.3856,0,2.3509,2.3538,2.3594,2.3624,2.3638,2.3664,2.3695,2.3722,2.3749,2.3758,2.378,2.3787,2.382,2.3807,2.3851,2.3833,2.3848,2.3858,2.3859,2.3862,2.3846,2.3868,2.3914,2.3918,2.3865,2.3864,2.3863,0,2.3532,2.3586,2.3625,2.364,2.3678,2.3695,2.3712,2.3738,2.3757,2.3784,2.3796,2.3826,2.3843,2.3865,2.3878,2.3868,2.392,2.3909,2.3926,2.3926,2.3936,2.3935,2.3983,2.3949,2.3949,2.3949,2.3949,0,2.3578,2.3611,2.3636,2.366,2.3695,2.3711,2.3745,2.3762,2.3784,2.381,2.3817,2.384,2.3858,2.3883,2.3894,2.3926,2.3934,2.3941,2.3943,2.3939,2.3938,2.3948,2.3945,2.395,2.395,2.395,2.395,0,2.361,2.3628,2.367,2.3702,2.371,2.3735,2.3761,2.3783,2.3798,2.3829,2.3837,2.3859,2.3889,2.3905,2.3942,2.3949,2.3985,2.3987,2.3976,2.3976,2.3992,2.3989,2.4046,2.4053,2.4017,2.4017,2.4018,0,2.3636,2.3661,2.3695,2.3713,2.3729,2.3758,2.3777,2.3792,2.3811,2.3843,2.386,2.389,2.3915,2.3961,2.3979,2.4007,2.4008,2.4026,2.4012,2.4007,2.4005,2.4003,2.4004,2.4028,2.4028,2.4029,2.4029,0,2.368,2.3688,2.3715,2.3745,2.3768,2.3792,2.3816,2.383,2.3849,2.3869,2.39,2.3919,2.3956,2.3985,2.4013,2.4028,2.403,2.4033,2.4038,2.4033,2.4025,2.4027,2.398,2.4031,2.4031,2.4031,2.4031,2.4031,2.3708,2.3729,2.3756,2.3785,2.3805,2.3827,2.3848,2.3864,2.389,2.3922,2.3929,2.396,2.3984,2.4023,2.4038,2.4061,2.4058,2.4066,2.4067,2.4069,2.4068,2.4023,2.4067,2.4067,2.4067,2.4067,2.4067,0,2.375,2.3767,2.3794,2.3827,2.3849,2.3851,2.3877,2.3895,2.3923,2.3945,2.3969,2.4002,2.4029,2.4049,2.4076,2.4091,2.4092,2.4097,2.4095,2.4098,2.4071,2.4063,2.4095,2.4095,2.4095,2.4095,2.4095,2.4095,2.3774,2.3809,2.3819,2.3863,2.3879,2.391,2.3924,2.3943,2.3961,2.3998,2.4021,2.4034,2.4054,2.4083,2.4107,2.4112,2.412,2.4124,2.4129,2.4103,2.41,2.4097,2.4089,2.4127,2.4127,2.4154,2.4154,2.4154]}]]